Tracking 28514 objects as of 24-Feb-2024
HD Live streaming from Space Station
objects crossing your sky now

STARLINK-4433

Track STARLINK-4433 now!
10-day predictions
STARLINK-4433 is classified as:


NORAD ID: 53478
Int'l Code: 2022-099P
Perigee: 569.1 km
Apogee: 571.2 km
Inclination: 97.7 °
Period: 95.9 minutes
Semi major axis: 6941 km
RCS: Unknown
Launch date: August 12, 2022
Source: United States (US)
Launch site: AIR FORCE WESTERN TEST RANGE (AFWTR)
Your satellite tracking list
Your tracking list is empty




NASA's NSSDC Master Catalog

Two Line Element Set (TLE):
1 53478U 22099P   24054.93371628  .00001922  00000-0  15423-3 0  9995
2 53478  97.6544 177.4309 0001529  99.4514 260.6883 15.01254831 84245
Source of the keplerian elements: AFSPC